Regional Weather Roundup
Issued by NWS

Home | Current Version | Previous Version | Text Only | Print | Product List | Glossary Off
Versions: 1 2 3 4 5 6 7 8 9 10 11 12 13 14 15 16 17 18 19 20 21 22 23 24 25 26 27 28 29 30 31 32 33 34 35 36 37 38 39 40 41 42 43 44 45 46 47 48 49 50

000
ASUS43 KLMK 171210
RWRKY
KENTUCKY REGIONAL WEATHER ROUNDUP
NATIONAL WEATHER SERVICE LOUISVILLE KY
700 AM EST SUN DEC 17 2017

NOTE "FAIR" INDICATES FEW OR NO CLOUDS BELOW 12,000 FEET
WITH NO SIGNIFICANT WEATHER AND/OR OBSTRUCTIONS TO VISIBILITY.

KYZ001>023-026-027-061>063-070>075-171300-
WESTERN AND SOUTH CENTRAL KENTUCKY

CITY           SKY/WX    TMP DP  RH WIND       PRES   REMARKS
PADUCAH        LGT RAIN  42  35  76 S3        30.15F
HENDERSON      MOCLDY    42  32  67 S9        30.17R
OWENSBORO      CLOUDY    41  32  70 S5        30.19R
HOPKINSVILLE   DRIZZLE   43  32  65 SE3       30.19R
BOWLING GREEN  CLOUDY    42  32  67 W3        30.24R
GLASGOW        CLOUDY    40  31  71 SW3       30.22R
$$

KYZ024-025-028>034-038-045-046-053-171300-
NORTH CENTRAL KENTUCKY

CITY           SKY/WX    TMP DP  RH WIND       PRES   REMARKS
LOUISVILLE/SDF CLOUDY    41  31  67 SE6       30.17R
LOUISVILLE/LOU MOCLDY    41  32  70 S5        30.18R
FORT KNOX      CLOUDY    40  31  71 S7        30.17R WCI  35
$$

KYZ035>037-039>044-047>052-055>060-089>105-171300-
NORTHEAST KENTUCKY

CITY           SKY/WX    TMP DP  RH WIND       PRES   REMARKS
LEXINGTON      CLOUDY    40  29  64 S8        30.18F WCI  34
COVINGTON      CLOUDY    37  30  75 S5        30.16S WCI  33
FRANKFORT      CLOUDY    40  28  62 S6        30.17S
$$

KYZ054-064>069-076>088-106>120-171300-
SOUTHEAST KENTUCKY

CITY           SKY/WX    TMP DP  RH WIND       PRES   REMARKS
JACKSON        PTCLDY    39  26  59 CALM      30.18F
LONDON         CLOUDY    34  28  79 CALM      30.21R
SOMERSET       CLOUDY    36  30  80 E3        30.20F
MIDDLESBORO    PTCLDY    30  28  94 CALM      30.24R
MONTICELLO     CLOUDY    37  31  78 W12       30.21S WCI  29
$$





USA.gov is the U.S. government's official web portal to all federal, state and local government web resources and services.